573  
ASUS43 KJKL 211810  
RWRJKL  
 
EAST KENTUCKY HOURLY WEATHER ROUNDUP  
NATIONAL WEATHER SERVICE JACKSON KY  
100 PM EST THU FEB 21 2019  
 
NOTE: "FAIR" INDICATES FEW OR NO CLOUDS BELOW 12,000 FEET WITH  
NO SIGNIFICANT WEATHER AND/OR S TO VISIBILITY
.  
 
* THESE REPORTS ARE NOT UNDER NWS QUALITY CONTROL AND MAY NOT  
REPORT WEATHER SUCH AS PRECIPITATION AND FOG.
 
 
KYZ079-080-083-085-087-088-110-112-115-119-120-211900   
..EASTERN KENTUCKY
 
 
 
CITY SKY/WX TMP DP RH WIND PRES REMARKS
 
JACKSON N/A 50 35 56 MISG 30.18F  
6HR MIN TEMP: 40; 6HR MAX TEMP: 51;  
 
LONDON N/A 50 38 63 N3 30.18F  
6HR MIN TEMP: 41; 6HR MAX TEMP: 50;  
 
MONTICELLO* N/A 50 40 68 N12G18 30.21F  
6HR MIN TEMP: 37; 6HR MAX TEMP: 50;  
 
WILLIAMSBURG* N/A 48 39 71 NE3 30.18F  
MIDDLESBORO* CLOUDY 49 43 79 NE5 30.18F  
6HR MIN TEMP: 45; 6HR MAX TEMP: 49;  
 
HARLAN APT* CLOUDY 47 40 77 CALM 30.18F  
PIKE CO APT* N/A 48 35 61 N5 30.18F  
BIG SANDY APT* N/A 51 36 57 N3 30.19F  
6HR MIN TEMP: 42; 6HR MAX TEMP: 52;  
 
MOREHEAD APT* N/A 46 32 57 NW5 30.22F  
ASHLAND* N/A 48 37 65 NW5 30.21F  

 
 
KYZ035-036-041-042-044-050-067-078-099-211900   
..CENTRAL KENTUCKY
 
 
 
CITY SKY/WX TMP DP RH WIND PRES REMARKS
 
MT STERLING* N/A 46 36 66 CALM 30.22F  
FLEMING/MASON* N/A 44 33 63 CALM 30.22F  
DANVILLE* N/A 46 36 66 CALM 30.21F  
LEXINGTON N/A 47 35 63 W6 30.21F  
6HR MIN TEMP: 32; 6HR MAX TEMP: 48;  
 
FRANKFORT N/A 46 31 55 NW3 30.20F  
6HR MIN TEMP: 29; 6HR MAX TEMP: 47;  
 
LOUISVILLE PTSUNNY 46 31 55 CALM 30.23F  
6HR MIN TEMP: 35; 6HR MAX TEMP: 47;  
 
LEBANON* N/A 46 37 71 CALM 30.21F  
GLASGOW* N/A 50 38 62 NE6 30.20F  
BOWLING GREEN N/A 51 38 60 NE7 30.20F  
6HR MIN TEMP: 35; 6HR MAX TEMP: 52;  
 

 
 
KYZ091>093-OHZ055-061-077-WVZ005-015-034-035-042-211900   
..SOUTHERN OHIO/WEST VIRGINIA
 
 
 
CITY SKY/WX TMP DP RH WIND PRES REMARKS
 
COVINGTON PTSUNNY 45 27 49 NW6 30.21F  
COLUMBUS N/A 42 28 57 W14 30.20R  
DAYTON N/A 40 28 62 W12 30.21F WCI 33  
WILMINGTON N/A 44 29 55 W9 30.19F  
HUNTINGTON N/A 50 34 54 NW6 30.19F  
CHARLESTON N/A 51 37 58 SW12 30.17F  
PINEVILLE* CLOUDY 48 41 75 MISG 30.21F  
BECKLEY CLOUDY 47 38 71 W10 30.15S  
BLUEFIELD CLOUDY 42 41 96 NW8 30.15S  
LOGAN CO APT* N/A 52 36 54 VRB6 30.15F  

 
 
VAZ002-007-008-TNZ017-027-036-066-071-211900   
..SOUTHWEST VIRGINIA/EAST TENNESSEE
 
 
 
CITY SKY/WX TMP DP RH WIND PRES REMARKS
 
WISE* CLOUDY 43 43 100 CALM 30.17S  
JONESVILLE* N/A 52 45 76 CALM 30.17F  
ABINGDON* CLOUDY 51 51 100 NW3 30.14S  
BRISTOL CLOUDY 53 52 96 CALM 30.14F  
MORRISTOWN* CLOUDY 52 52 100 N5 30.13F FOG  
SEVIERVILLE* CLOUDY 54 52 94 CALM 30.14F  
KNOXVILLE CLOUDY 50 47 89 N8 30.14F  
LAFOLLETTE* CLOUDY 50 43 76 NE5 30.19F  
OAK RIDGE CLOUDY 51 47 86 VRB5 30.16F  
CROSSVILLE CLOUDY 45 42 89 N7 30.16S  
NASHVILLE CLOUDY 52 37 56 NE6 30.19F  

 
   
..KEY TO REMARKS
 
 
VSB - VISIBILITY IN MILES  
WCI - WIND CHILL INDEX  
HX - HEAT INDEX  
 

 
 
 
CLICK HERE TO GO TO PREVIOUS BULLETINS.

The Nexlab KY Page Main Text Page